Date String (YYYY-MM-DD hh:mm:ss) UTC,Instrument flags,absolute air pressure of the measurement (hPa),sample flow rate (lpm),inlet stack bypass flow (lpm),air temperature of the measurement (°C),ambient temperature measured by the external sensor (°C),aerosol sample conditioner tube jacket temperature (°C),OPC LED temperature (°C),internal box temperature (°C),relative humidity of the measurement (%),span deviation,mass concentration of particles derived from Lorenz-Mie calculation of OPC scattering (μg/m³),mass concentration of particles derived from Lorenz-Mie calculation of OPC scattering (μg/m³),mass concentration of particles derived from Lorenz-Mie calculation of OPC scattering (μg/m³)
DateTimeUTC,F1_M11,P_M11,Q1_M11,Q2_M11,T1_M11,T2_M11,T3_M11,T4_M11,T5_M11,U1_M11,ZSPAN_M11,X2_M11,X0_M11,X1_M11
2024-06-17 15:00:00,SystemResetWarning,0821.8,5.01,000.00,030.4,029.8,000.0,038.9,032.2,032.6,0000.0,0006.62,0016.60,0005.47
2024-06-17 15:01:00,SystemResetWarning,0821.8,5.02,000.00,030.5,029.8,000.0,038.9,032.2,032.6,0000.0,0006.60,0016.35,0005.47
2024-06-17 15:02:00,SystemResetWarning,0821.8,4.99,000.00,030.5,029.9,000.0,038.9,032.3,032.2,0000.0,0006.63,0016.12,0005.48
2024-06-17 15:03:00,SystemResetWarning,0821.8,5.00,000.00,030.5,029.9,000.0,038.9,032.3,032.2,0000.0,0006.72,0017.40,0005.50
2024-06-17 15:04:00,SystemResetWarning,0821.8,4.99,000.00,030.6,030.0,000.0,038.9,032.3,032.4,-000.1,0006.80,0017.85,0005.52
2024-06-17 15:05:00,SystemResetWarning,0821.8,5.00,000.00,030.6,030.0,000.0,039.0,032.4,031.8,-000.3,0006.84,0017.95,0005.54
2024-06-17 15:06:00,SystemResetWarning,0821.8,5.01,000.00,030.7,030.1,000.0,039.0,032.4,031.8,-000.2,0006.86,0018.65,0005.56
2024-06-17 15:07:00,SystemResetWarning,0821.7,5.01,000.00,030.7,030.1,000.0,039.0,032.4,031.6,-000.4,0006.88,0018.82,0005.60
2024-06-17 15:08:00,SystemResetWarning,0821.7,5.00,000.00,030.7,030.2,000.0,039.0,032.5,031.6,-000.3,0006.94,0018.89,0005.65
2024-06-17 15:09:00,SystemResetWarning,0821.8,5.00,000.00,030.8,030.2,000.0,039.1,032.5,031.6,-000.3,0007.00,0018.99,0005.69
2024-06-17 15:10:00,SystemResetWarning,0821.7,5.00,000.00,030.8,030.2,000.0,039.1,032.5,031.4,-000.1,0007.07,0019.65,0005.76
2024-06-17 15:11:00,SystemResetWarning,0821.7,5.00,000.00,030.8,030.3,000.0,039.1,032.6,031.3,0000.2,0007.16,0019.61,0005.85
2024-06-17 15:12:00,SystemResetWarning,0821.7,4.99,000.00,030.8,030.3,000.0,039.1,032.6,031.3,0000.4,0007.20,0019.58,0005.92
2024-06-17 15:13:00,SystemResetWarning,0821.7,5.00,000.00,030.9,030.3,000.0,039.2,032.6,031.2,-000.0,0007.26,0019.12,0005.98
2024-06-17 15:14:00,SystemResetWarning,0821.7,5.00,000.00,030.9,030.3,000.0,039.2,032.6,031.1,0000.3,0007.29,0017.77,0006.03
2024-06-17 15:15:00,SystemResetWarning,0821.6,5.00,000.00,030.9,030.4,000.0,039.2,032.6,031.2,0000.4,0007.32,0018.04,0006.10
2024-06-17 15:16:00,SystemResetWarning,0821.6,5.00,000.00,031.0,030.4,000.0,039.2,032.7,031.3,0000.7,0007.39,0018.76,0006.17
2024-06-17 15:17:00,SystemResetWarning,0821.5,4.99,000.00,031.0,030.4,000.0,039.3,032.7,031.3,0000.7,0007.45,0018.44,0006.22
2024-06-17 15:18:00,SystemResetWarning,0821.5,5.01,000.00,031.0,030.4,000.0,039.3,032.8,031.3,0001.3,0007.52,0019.28,0006.25
2024-06-17 15:19:00,SystemResetWarning,0821.6,5.01,000.00,031.0,030.5,000.0,039.3,032.8,031.4,0001.3,0007.49,0019.18,0006.25
2024-06-17 15:20:00,SystemResetWarning,0821.6,5.00,000.00,031.1,030.5,000.0,039.4,032.8,031.1,0001.2,0007.50,0019.07,0006.24
2024-06-17 15:21:00,SystemResetWarning,0822.0,4.98,000.00,031.0,029.3,000.0,039.4,032.1,031.4,0000.9,0007.51,0018.79,0006.24
2024-06-17 15:22:00,SystemResetWarning,0821.4,5.01,000.00,030.5,027.0,000.0,039.4,031.1,032.1,0000.5,0007.47,0018.34,0006.21
2024-06-17 15:23:00,SystemResetWarning,0821.4,5.01,000.00,030.2,026.3,000.0,039.3,030.7,032.7,0000.4,0007.47,0018.40,0006.19
2024-06-17 15:24:00,SystemResetWarning,0821.4,5.01,000.00,030.0,026.6,000.0,039.2,030.7,033.2,0001.0,0007.47,0019.87,0006.18
2024-06-17 15:25:00,SystemResetWarning,0821.4,5.00,000.00,029.9,027.0,000.0,039.0,030.9,033.4,0001.3,0007.45,0020.89,0006.18
2024-06-17 15:26:00,SystemResetWarning,0821.3,5.00,000.00,029.9,027.5,000.0,038.9,031.2,033.3,0001.2,0007.45,0020.12,0006.16
2024-06-17 15:27:00,SystemResetWarning,0821.3,4.99,000.00,029.9,027.9,000.0,038.8,031.3,033.2,0001.4,0007.43,0020.05,0006.15
2024-06-17 15:28:00,SystemResetWarning,0821.3,5.00,000.00,029.9,028.2,000.0,038.8,031.4,032.2,0001.4,0007.44,0020.33,0006.17
2024-06-17 15:29:00,SystemResetWarning,0821.3,5.00,000.00,030.0,028.5,000.0,038.7,031.6,032.3,0001.2,0007.44,0018.98,0006.20
2024-06-17 15:30:00,SystemResetWarning,0821.3,5.00,000.00,030.0,028.8,000.0,038.7,031.6,033.0,0001.2,0007.49,0019.30,0006.24
2024-06-17 15:31:00,SystemResetWarning,0821.2,5.00,000.00,030.0,029.0,000.0,038.7,031.7,032.8,0001.7,0007.53,0019.79,0006.29
2024-06-17 15:32:00,SystemResetWarning,0821.2,5.00,000.00,030.1,029.1,000.0,038.7,031.8,032.9,0001.9,0007.64,0020.54,0006.32
2024-06-17 15:33:00,SystemResetWarning,0821.2,5.00,000.00,030.1,029.3,000.0,038.6,031.9,033.0,0002.2,0007.66,0020.84,0006.36
2024-06-17 15:34:00,SystemResetWarning,0821.2,5.00,000.00,030.2,029.4,000.0,038.7,031.9,033.1,0002.0,0007.71,0021.02,0006.40
2024-06-17 15:35:00,SystemResetWarning,0821.2,5.00,000.00,030.2,029.5,000.0,038.7,032.0,032.6,0001.8,0007.76,0020.49,0006.43
2024-06-17 15:36:00,SystemResetWarning,0821.2,5.00,000.00,030.3,029.6,000.0,038.7,032.0,032.6,0001.3,0007.78,0019.56,0006.46
2024-06-17 15:37:00,SystemResetWarning,0821.1,5.00,000.00,030.3,029.7,000.0,038.7,032.1,032.4,0001.4,0007.77,0019.34,0006.48
2024-06-17 15:38:00,SystemResetWarning,0821.1,5.00,000.00,030.4,029.7,000.0,038.7,032.1,032.3,0001.3,0007.80,0019.46,0006.52
2024-06-17 15:39:00,SystemResetWarning,0821.2,5.00,000.00,030.4,029.8,000.0,038.7,032.2,032.4,0001.0,0007.80,0018.68,0006.54
2024-06-17 15:40:00,SystemResetWarning,0821.5,5.00,000.00,030.4,029.9,000.0,038.8,032.2,032.2,0000.6,0007.83,0017.90,0006.56
2024-06-17 15:41:00,SystemResetWarning,0821.3,5.00,000.00,030.5,029.9,000.0,038.8,032.2,032.4,0000.5,0007.83,0017.36,0006.57
2024-06-17 15:42:00,SystemResetWarning,0821.0,5.01,000.00,030.5,030.0,000.0,038.8,032.3,031.6,0000.3,0007.87,0017.56,0006.59
2024-06-17 15:43:00,SystemResetWarning,0821.0,5.00,000.00,030.6,030.0,000.0,038.8,032.3,031.5,0000.2,0007.87,0017.28,0006.62
2024-06-17 15:44:00,SystemResetWarning,0821.1,5.00,000.00,030.6,030.1,000.0,038.9,032.4,031.5,0000.3,0007.84,0016.76,0006.66
2024-06-17 15:45:00,SystemResetWarning,0821.1,4.99,000.00,030.7,030.1,000.0,038.9,032.4,031.7,0000.3,0007.85,0017.81,0006.66
2024-06-17 15:46:00,SystemResetWarning,0821.1,4.99,000.00,030.7,030.2,000.0,038.9,032.5,032.0,0000.3,0007.78,0017.62,0006.64
2024-06-17 15:47:00,SystemResetWarning,0821.1,5.00,000.00,030.7,030.2,000.0,039.0,032.5,031.7,0000.4,0007.74,0017.81,0006.61
2024-06-17 15:48:00,SystemResetWarning,0821.1,5.01,000.00,030.8,030.3,000.0,039.0,032.5,031.4,0000.7,0007.76,0017.60,0006.61
2024-06-17 15:49:00,SystemResetWarning,0821.1,5.00,000.00,030.8,030.3,000.0,039.0,032.5,031.0,0000.9,0007.76,0016.85,0006.63
2024-06-17 15:50:00,SystemResetWarning,0821.0,5.00,000.00,030.8,030.3,000.0,039.1,032.6,031.0,0000.9,0007.79,0016.93,0006.63
2024-06-17 15:51:00,SystemResetWarning,0821.0,5.00,000.00,030.8,030.3,000.0,039.1,032.6,031.0,0001.2,0007.79,0017.88,0006.62
2024-06-17 15:52:00,SystemResetWarning,0821.0,4.98,000.00,030.7,028.9,000.0,039.2,031.8,031.4,0001.4,0007.77,0017.98,0006.62
2024-06-17 15:53:00,SystemResetWarning,0820.8,5.02,000.00,030.3,026.6,000.0,039.1,030.8,032.2,0001.6,0007.73,0017.58,0006.61
2024-06-17 15:54:00,SystemResetWarning,0820.8,5.01,000.00,029.9,026.0,000.0,039.1,030.4,033.0,0001.2,0007.73,0017.88,0006.59
2024-06-17 15:55:00,SystemResetWarning,0820.8,5.00,000.00,029.7,026.3,000.0,038.9,030.5,033.6,0001.0,0007.76,0018.06,0006.58
2024-06-17 15:56:00,SystemResetWarning,0820.8,5.00,000.00,029.7,026.8,000.0,038.8,030.8,033.7,0001.2,0007.79,0017.46,0006.58
2024-06-17 15:57:00,SystemResetWarning,0820.8,5.00,000.00,029.7,027.3,000.0,038.7,031.0,033.5,0001.3,0007.87,0017.43,0006.62
2024-06-17 15:58:00,SystemResetWarning,0820.9,5.00,000.00,029.7,027.7,000.0,038.6,031.1,033.7,0001.6,0007.98,0016.99,0006.68
2024-06-17 15:59:00,SystemResetWarning,0820.8,5.00,000.00,029.7,028.1,000.0,038.5,031.3,033.5,0001.3,0008.02,0017.09,0006.70
